KC5AV Weather Reports


time (UTC)temp
C
wind
direction
speed
KPH
gust
KPH
rain 1hr
cm
rain 24hr
cm
rain mn
cm
humidity
%
barometer
mb
20260506181649 20 102 4.8 4.8 0.00 0.00 0.00 80 1012.5
20260506181147 20 27 6.4 6.4 0.00 0.00 0.00 80 1012.9
20260506180644 20 31 1.6 4.8 0.00 0.00 0.00 81 1013.0
20260506180140 19 114 4.8 8.0 0.00 0.00 0.00 80 1013.1
20260506175636 20 66 4.8 8.0 0.00 0.00 0.00 79 1013.6
20260506175132 19 63 0.0 4.8 0.00 0.00 0.00 81 1013.6
20260506174631 18 49 0.0 6.4 0.00 0.00 0.00 81 1013.8
20260506174127 18 299 0.0 3.2 0.00 0.00 0.00 82 1014.3
20260506173625 18 240 0.0 9.7 0.00 0.00 0.00 81 1014.7
20260506173122 18 260 11.3 12.9 0.00 0.00 0.00 81 1014.4
20260506172619 18 86 1.6 6.4 0.00 0.00 0.00 84 1014.4
20260506172115 18 276 6.4 8.0 0.00 0.00 0.00 83 1014.4
20260506171613 18 83 0.0 9.7 0.00 0.00 0.00 82 1014.8
20260506171111 18 240 0.0 6.4 0.00 0.00 0.00 83 1015.1
20260506170608 18 274 4.8 6.4 0.00 0.00 0.00 82 1015.1
20260506170105 17 47 4.8 6.4 0.00 0.00 0.00 84 1014.9
20260506165603 17 329 3.2 6.4 0.00 0.00 0.00 84 1015.3
20260506165059 17 48 3.2 11.3 0.00 0.00 0.00 84 1015.1
20260506164556 17 326 1.6 11.3 0.00 0.00 0.00 82 1015.3
20260506164054 18 33 0.0 6.4 0.00 0.00 0.00 83 1015.0
20260506163549 18 268 4.8 9.7 0.00 0.00 0.00 80 1014.6
20260506163046 18 40 0.0 3.2 0.00 0.00 0.00 82 1014.7
20260506162542 18 26 0.0 8.0 0.00 0.00 0.00 82 1014.6
20260506162039 18 334 1.6 9.7 0.00 0.00 0.00 82 1014.5
20260506161537 18 50 3.2 9.7 0.00 0.00 0.00 82 1014.2
20260506161033 18 0 0.0 6.4 0.00 0.00 0.00 81 1013.9
20260506160531 18 254 6.4 8.0 0.00 0.00 0.00 82 1013.8
20260506160028 18 253 0.0 3.2 0.00 0.00 0.00 83 1013.8
20260506155526 18 229 0.0 4.8 0.00 0.00 0.00 82 1013.6
20260506153657 18 50 0.0 4.8 0.00 0.00 0.00 82 1013.1
20260506153155 18 39 0.0 6.4 0.00 0.00 0.00 82 1013.7
20260506152652 18 29 1.6 6.4 0.00 0.00 0.00 82 1013.6
20260506152149 18 279 4.8 4.8 0.00 0.00 0.00 81 1013.6
20260506151648 19 32 0.0 6.4 0.00 0.00 0.00 81 1013.4
20260506151144 20 346 3.2 4.8 0.00 0.00 0.00 79 1013.1
20260506150641 20 11 0.0 3.2 0.00 0.00 0.00 80 1013.2
20260506150138 20 82 1.6 3.2 0.00 0.00 0.00 81 1012.9
20260506145635 18 3 3.2 4.8 0.00 0.00 0.00 83 1012.9
20260506145131 18 265 4.8 6.4 0.00 0.00 0.00 82 1013.1
20260506144629 18 23 3.2 3.2 0.00 0.00 0.00 84 1012.9
20260506144125 18 273 0.0 9.7 0.00 0.00 0.00 84 1012.7
20260506143624 18 272 3.2 9.7 0.00 0.00 0.00 84 1012.8
20260506143121 17 240 0.0 4.8 0.00 0.00 0.00 86 1012.9
20260506142619 17 53 3.2 6.4 0.00 0.00 0.00 85 1013.0
20260506142117 17 298 3.2 4.8 0.00 0.00 0.00 86 1012.9
20260506141614 18 266 6.4 11.3 0.00 0.00 0.00 85 1012.9
20260506141113 18 22 6.4 9.7 0.00 0.00 0.00 85 1012.6
20260506140610 18 59 1.6 4.8 0.00 0.00 0.00 86 1012.8
20260506140107 18 277 1.6 9.7 0.00 0.00 0.00 84 1012.7
20260506135604 18 29 6.4 6.4 0.00 0.00 0.00 85 1012.5
20260506135100 18 261 8.0 8.0 0.00 0.00 0.00 85 1012.7
20260506134557 18 13 1.6 4.8 0.00 0.00 0.00 85 1012.5
20260506134052 18 309 1.6 9.7 0.00 0.00 0.00 85 1012.4
20260506133550 18 53 1.6 4.8 0.00 0.00 0.00 86 1012.4
20260506133047 18 298 1.6 9.7 0.00 0.00 0.00 86 1012.3
20260506132544 18 89 0.0 6.4 0.00 0.00 0.00 86 1012.2
20260506132041 18 26 3.2 3.2 0.00 0.00 0.00 87 1012.2
20260506131538 18 20 1.6 4.8 0.00 0.00 0.00 88 1012.0
20260506131034 18 284 3.2 8.0 0.00 0.00 0.00 88 1011.9
20260506130532 19 75 3.2 4.8 0.00 0.00 0.00 88 1011.7
20260506130029 20 74 4.8 6.4 0.00 0.00 0.00 89 1011.8
20260506125527 20 288 3.2 6.4 0.00 0.00 0.00 88 1011.6
20260506125025 20 293 0.0 4.8 0.00 0.00 0.00 88 1011.7
20260506124522 20 285 3.2 3.2 0.00 0.00 0.00 88 1011.6
20260506124020 20 225 1.6 3.2 0.00 0.00 0.00 88 1011.4
20260506123518 20 3 0.0 6.4 0.00 0.00 0.00 86 1011.3
20260506123016 21 263 4.8 11.3 0.00 0.00 0.00 84 1011.4
20260506122512 22 273 4.8 6.4 0.00 0.00 0.00 86 1011.2
20260506122010 22 245 3.2 9.7 0.00 0.00 0.00 86 1011.1
20260506121507 23 31 0.0 4.8 0.00 0.00 0.00 87 1011.1
20260506121004 23 34 0.0 1.6 0.00 0.00 0.00 90 1011.1
20260506120501 23 14 0.0 1.6 0.00 0.00 0.00 90 1010.9
20260506115959 23 3 0.0 3.2 0.00 0.00 0.00 90 1010.9
20260506115456 23 31 0.0 3.2 0.00 0.00 0.00 90 1010.7
20260506114954 23 198 0.0 3.2 0.00 0.00 0.00 90 1010.6
20260506114452 23 274 3.2 3.2 0.00 0.00 0.00 90 1010.5
20260506113950 23 298 0.0 3.2 0.00 0.00 0.00 90 1010.5
20260506113448 23 278 0.0 3.2 0.00 0.00 0.00 90 1010.5
20260506112944 23 353 0.0 3.2 0.00 0.00 0.00 90 1010.4
20260506112442 23 43 0.0 4.8 0.00 0.00 0.00 90 1010.3
20260506111939 23 50 0.0 1.6 0.00 0.00 0.00 90 1010.3
20260506111437 23 15 0.0 3.2 0.00 0.00 0.00 90 1010.2
20260506110933 23 0 0.0 1.6 0.00 0.00 0.00 90 1010.1
20260506110432 23 58 0.0 3.2 0.00 0.00 0.00 90 1010.1
20260506105927 23 129 0.0 1.6 0.00 0.00 0.00 89 1010.2
20260506105424 23 123 3.2 4.8 0.00 0.00 0.00 89 1010.0
20260506104921 23 227 0.0 3.2 0.00 0.00 0.00 90 1010.0
20260506104419 23 15 0.0 3.2 0.00 0.00 0.00 90 1009.9
20260506103917 23 176 3.2 3.2 0.00 0.00 0.00 90 1009.8
20260506103414 23 141 0.0 3.2 0.00 0.00 0.00 90 1009.7
20260506102911 23 22 0.0 4.8 0.00 0.00 0.00 90 1009.8
20260506102410 23 174 0.0 3.2 0.00 0.00 0.00 90 1009.6
20260506101906 23 76 0.0 3.2 0.00 0.00 0.00 89 1009.5
20260506101402 23 145 1.6 4.8 0.00 0.00 0.00 89 1009.7
20260506100900 23 133 3.2 4.8 0.00 0.00 0.00 89 1009.6
20260506100358 23 4 1.6 6.4 0.00 0.00 0.00 89 1009.6
20260506095856 23 331 3.2 6.4 0.00 0.00 0.00 89 1009.5
20260506095354 23 329 0.0 4.8 0.00 0.00 0.00 89 1009.5
20260506094850 23 93 3.2 8.0 0.00 0.00 0.00 90 1009.6
20260506094349 23 159 0.0 3.2 0.00 0.00 0.00 89 1009.4
20260506093846 23 145 0.0 4.8 0.00 0.00 0.00 89 1009.4
20260506093344 23 36 0.0 4.8 0.00 0.00 0.00 89 1009.3
20260506092841 23 141 0.0 6.4 0.00 0.00 0.00 89 1009.3
20260506092339 23 162 0.0 3.2 0.00 0.00 0.00 90 1009.2
20260506091836 23 195 0.0 3.2 0.00 0.00 0.00 90 1009.1
20260506091333 23 148 1.6 4.8 0.00 0.00 0.00 90 1009.1
20260506090831 23 117 3.2 4.8 0.00 0.00 0.00 90 1009.3
20260506090328 23 164 4.8 4.8 0.00 0.00 0.00 90 1009.1
20260506085825 23 120 0.0 4.8 0.00 0.00 0.00 90 1009.1
20260506085321 23 161 4.8 8.0 0.00 0.00 0.00 90 1009.1
20260506084817 23 194 0.0 4.8 0.00 0.00 0.00 90 1009.3
20260506084314 23 110 3.2 3.2 0.00 0.00 0.00 90 1009.1
20260506083811 23 167 4.8 6.4 0.00 0.00 0.00 90 1009.2
20260506083309 23 131 0.0 3.2 0.00 0.00 0.00 90 1009.1
20260506082806 23 147 0.0 6.4 0.00 0.00 0.00 90 1009.3
20260506082304 23 176 4.8 4.8 0.00 0.00 0.00 90 1008.9
20260506081759 23 186 0.0 3.2 0.00 0.00 0.00 90 1008.9
20260506081256 23 203 0.0 4.8 0.00 0.00 0.00 90 1009.0
20260506080754 23 5 0.0 3.2 0.00 0.00 0.00 90 1008.7
20260506080250 23 250 0.0 8.0 0.00 0.00 0.00 90 1009.1
20260506073234 23 22 0.0 3.2 0.00 0.00 0.00 90 1009.3
20260506072731 23 147 0.0 4.8 0.00 0.00 0.00 91 1009.4
20260506072229 23 143 3.2 4.8 0.00 0.00 0.00 91 1009.0
20260506071726 23 225 3.2 4.8 0.00 0.00 0.00 90 1009.0
20260506071224 23 15 0.0 3.2 0.00 0.00 0.00 90 1009.3
20260506070721 23 6 1.6 4.8 0.00 0.00 0.00 90 1009.0
20260506070218 23 196 1.6 9.7 0.00 0.00 0.00 90 1009.1
20260506062154 23 329 3.2 4.8 0.00 0.00 0.00 89 1010.1
20260506061650 23 257 0.0 4.8 0.00 0.00 0.00 89 1010.0
20260506061148 23 266 3.2 6.4 0.00 0.00 0.00 89 1009.9
20260506060647 23 111 1.6 4.8 0.00 0.00 0.00 90 1009.8
20260506060143 23 219 0.0 3.2 0.00 0.00 0.00 90 1009.6
20260506051115 23 124 1.6 6.4 0.00 0.00 0.00 90 1009.5
20260506050613 23 142 0.0 4.8 0.00 0.00 0.00 90 1009.3
20260506050110 23 190 0.0 8.0 0.00 0.00 0.00 90 1009.1
20260506045104 23 27 1.6 3.2 0.00 0.00 0.00 90 1009.3
20260506044602 23 94 1.6 6.4 0.00 0.00 0.00 90 1009.0
20260506044058 23 158 0.0 4.8 0.00 0.00 0.00 90 1008.9
20260506043555 23 307 1.6 4.8 0.00 0.00 0.00 89 1008.7
20260506043054 23 117 0.0 3.2 0.00 0.00 0.00 89 1008.7
20260506042552 23 206 1.6 3.2 0.00 0.00 0.00 89 1008.7
20260506042050 23 210 0.0 6.4 0.00 0.00 0.00 89 1008.4
20260506041548 23 164 4.8 6.4 0.00 0.00 0.00 88 1008.3
20260506041045 23 160 0.0 9.7 0.00 0.00 0.00 88 1008.4
20260506040543 24 250 0.0 4.8 0.00 0.00 0.00 88 1008.4
20260506040038 24 83 1.6 3.2 0.00 0.00 0.00 88 1008.1
20260506035536 24 54 1.6 8.0 0.00 0.00 0.00 87 1008.4
20260506035032 24 106 4.8 4.8 0.00 0.00 0.00 87 1008.4
20260506034530 24 82 6.4 6.4 0.00 0.00 0.00 87 1008.5
20260506034026 24 146 3.2 4.8 0.00 0.00 0.00 86 1008.3
20260506033524 24 109 1.6 4.8 0.00 0.00 0.00 86 1008.5
20260506033021 25 152 3.2 8.0 0.00 0.00 0.00 85 1008.2
20260506032518 25 258 3.2 3.2 0.00 0.00 0.00 85 1008.2
20260506032015 25 28 0.0 4.8 0.00 0.00 0.00 85 1008.2
20260506031513 25 128 1.6 6.4 0.00 0.00 0.00 84 1008.4
20260506031009 25 272 0.0 4.8 0.00 0.00 0.00 84 1008.1
20260506030507 25 131 1.6 6.4 0.00 0.00 0.00 84 1008.1
20260506030004 25 217 0.0 4.8 0.00 0.00 0.00 84 1008.0
20260506025501 25 189 0.0 3.2 0.00 0.00 0.00 84 1008.1
20260506024957 25 35 3.2 3.2 0.00 0.00 0.00 84 1008.3
20260506024454 25 89 0.0 3.2 0.00 0.00 0.00 83 1008.4
20260506023950 25 102 0.0 3.2 0.00 0.00 0.00 83 1008.3
20260506023447 25 224 0.0 3.2 0.00 0.00 0.00 83 1008.4
20260506022943 25 62 0.0 1.6 0.00 0.00 0.00 83 1008.3
20260506022442 25 124 0.0 1.6 0.00 0.00 0.00 82 1008.1
20260506021939 25 114 1.6 4.8 0.00 0.00 0.00 83 1008.2
20260506021436 25 22 0.0 4.8 0.00 0.00 0.00 83 1007.7
20260506020933 25 38 0.0 3.2 0.00 0.00 0.00 83 1007.8
20260506020431 25 132 0.0 3.2 0.00 0.00 0.00 83 1007.9
20260506015928 25 53 0.0 1.6 0.00 0.00 0.00 83 1007.6
20260506015426 25 174 0.0 3.2 0.00 0.00 0.00 83 1007.5
20260506014922 25 86 3.2 4.8 0.00 0.00 0.00 82 1007.4
20260506014419 25 326 0.0 0.0 0.00 0.00 0.00 82 1007.5
20260506013916 25 269 0.0 1.6 0.00 0.00 0.00 81 1007.6
20260506013414 25 89 0.0 1.6 0.00 0.00 0.00 81 1007.4
20260506012909 25 333 0.0 0.0 0.00 0.00 0.00 80 1007.2
20260506012406 25 55 0.0 1.6 0.00 0.00 0.00 80 1007.3
20260506011903 25 111 0.0 3.2 0.00 0.00 0.00 79 1007.3
20260506011400 26 212 0.0 3.2 0.00 0.00 0.00 79 1007.6
20260506010857 26 196 4.8 4.8 0.00 0.00 0.00 78 1007.5
20260506010356 26 191 0.0 3.2 0.00 0.00 0.00 78 1007.1
20260506005852 26 55 0.0 3.2 0.00 0.00 0.00 78 1007.0
20260506005349 26 155 3.2 3.2 0.00 0.00 0.00 77 1006.8
20260506004845 26 348 0.0 3.2 0.00 0.00 0.00 77 1006.9
20260506004343 26 157 0.0 3.2 0.00 0.00 0.00 76 1006.8
20260506003839 26 209 0.0 1.6 0.00 0.00 0.00 76 1006.3
20260506003335 27 210 0.0 6.4 0.00 0.00 0.00 75 1006.3
20260506002832 27 185 0.0 6.4 0.00 0.00 0.00 74 1006.3
20260506002328 27 178 1.6 3.2 0.00 0.00 0.00 74 1006.4
20260506001824 27 113 0.0 6.4 0.00 0.00 0.00 73 1006.5
20260506001321 27 329 1.6 3.2 0.00 0.00 0.00 72 1006.8
20260506000818 27 352 1.6 3.2 0.00 0.00 0.00 71 1006.5
20260506000316 28 186 0.0 4.8 0.00 0.00 0.00 71 1006.4
20260505235812 28 177 3.2 4.8 0.00 0.00 0.00 70 1006.6
20260505235310 28 298 3.2 4.8 0.00 0.00 0.00 70 1006.8
20260505234807 28 179 0.0 6.4 0.00 0.00 0.00 69 1006.8
20260505234304 28 24 0.0 4.8 0.00 0.00 0.00 70 1006.5
20260505233801 28 332 1.6 8.0 0.00 0.00 0.00 69 1006.5
20260505233259 28 240 1.6 6.4 0.00 0.00 0.00 69 1006.4
20260505232756 28 199 0.0 4.8 0.00 0.00 0.00 68 1006.4
20260505232253 29 165 0.0 4.8 0.00 0.00 0.00 68 1006.6
20260505231749 29 116 3.2 6.4 0.00 0.00 0.00 68 1006.2
20260505231249 29 293 0.0 4.8 0.00 0.00 0.00 67 1006.3
20260505230746 29 165 4.8 4.8 0.00 0.00 0.00 67 1006.3
20260505230243 29 142 8.0 8.0 0.00 0.00 0.00 67 1006.3
20260505225739 29 256 1.6 8.0 0.00 0.00 0.00 67 1006.3
20260505225237 28 186 3.2 3.2 0.00 0.00 0.00 68 1006.1
20260505224732 28 223 3.2 4.8 0.00 0.00 0.00 67 1005.9
20260505224230 29 152 3.2 4.8 0.00 0.00 0.00 66 1006.3
20260505223727 29 260 1.6 4.8 0.00 0.00 0.00 66 1006.3
20260505223223 29 309 3.2 8.0 0.00 0.00 0.00 65 1006.1
20260505222719 29 166 0.0 8.0 0.00 0.00 0.00 65 1006.0
20260505222215 30 306 0.0 6.4 0.00 0.00 0.00 65 1006.2
20260505221713 29 189 3.2 4.8 0.00 0.00 0.00 66 1006.3
20260505221209 29 153 0.0 6.4 0.00 0.00 0.00 67 1006.1
20260505220706 29 196 3.2 8.0 0.00 0.00 0.00 66 1006.2
20260505220204 29 234 1.6 8.0 0.00 0.00 0.00 66 1006.3
20260505215701 29 293 0.0 4.8 0.00 0.00 0.00 65 1006.4
20260505215200 29 173 3.2 9.7 0.00 0.00 0.00 66 1006.6
20260505214657 28 243 3.2 8.0 0.00 0.00 0.00 67 1006.6
20260505214154 29 214 3.2 8.0 0.00 0.00 0.00 64 1006.6
20260505213652 30 203 6.4 6.4 0.00 0.00 0.00 65 1006.9
20260505213148 28 94 3.2 3.2 0.00 0.00 0.00 66 1006.6
20260505212644 28 179 0.0 9.7 0.00 0.00 0.00 66 1006.8
20260505212142 28 139 0.0 9.7 0.00 0.00 0.00 66 1006.9
20260505211638 28 248 3.2 11.3 0.00 0.00 0.00 67 1007.0
20260505211136 29 187 3.2 11.3 0.00 0.00 0.00 66 1006.6
20260505210633 28 162 0.0 4.8 0.00 0.00 0.00 68 1006.5
20260505210129 28 136 8.0 9.7 0.00 0.00 0.00 68 1006.9
20260505205627 28 79 3.2 11.3 0.00 0.00 0.00 69 1006.9
20260505205125 29 121 0.0 6.4 0.00 0.00 0.00 67 1007.1
20260505204621 28 254 0.0 4.8 0.00 0.00 0.00 70 1007.1
20260505204119 28 202 3.2 4.8 0.00 0.00 0.00 70 1007.3
20260505203615 28 152 1.6 8.0 0.00 0.00 0.00 70 1007.4
20260505203113 28 289 3.2 6.4 0.00 0.00 0.00 69 1007.3
20260505202608 28 281 3.2 8.0 0.00 0.00 0.00 70 1007.3
20260505202105 27 180 3.2 11.3 0.00 0.00 0.00 69 1007.3
20260505201601 28 94 1.6 6.4 0.00 0.00 0.00 69 1007.3
20260505201059 28 340 1.6 3.2 0.00 0.00 0.00 70 1007.4
20260505200557 28 331 3.2 6.4 0.00 0.00 0.00 68 1007.6
20260505200054 28 50 0.0 8.0 0.00 0.00 0.00 70 1007.4
20260505195550 28 126 9.7 9.7 0.00 0.00 0.00 68 1007.4
20260505195047 28 163 1.6 12.9 0.00 0.00 0.00 69 1007.4
20260505194544 28 221 4.8 9.7 0.00 0.00 0.00 69 1007.4
20260505194040 28 242 3.2 8.0 0.00 0.00 0.00 68 1007.4
20260505193537 28 106 3.2 6.4 0.00 0.00 0.00 68 1007.5
20260505193034 28 152 6.4 11.3 0.00 0.00 0.00 67 1007.4
20260505192533 28 187 8.0 12.9 0.00 0.00 0.00 65 1007.5
20260505192030 28 329 3.2 6.4 0.00 0.00 0.00 66 1007.5
20260505191528 28 125 3.2 9.7 0.00 0.00 0.00 66 1007.8
20260505191026 28 214 0.0 9.7 0.00 0.00 0.00 68 1007.8
20260505190520 28 283 3.2 6.4 0.00 0.00 0.00 70 1007.7
20260505190017 27 39 3.2 6.4 0.00 0.00 0.00 70 1007.9
20260505185514 27 300 4.8 19.3 0.00 0.00 0.00 68 1007.9
20260505185010 27 292 6.4 14.5 0.00 0.00 0.00 70 1007.8
20260505184507 27 124 3.2 11.3 0.00 0.00 0.00 70 1007.9
20260505184003 28 206 1.6 9.7 0.00 0.00 0.00 67 1008.1
20260505183500 27 285 3.2 6.4 0.00 0.00 0.00 69 1008.0
20260505182957 28 179 6.4 8.0 0.00 0.00 0.00 68 1008.1
20260505182454 27 87 4.8 9.7 0.00 0.00 0.00 71 1007.9